Regional Weather Roundup
Issued by NWS Jackson, KY

Home | Current Version | Previous Version | Graphics & Text | Print | Product List | Glossary On
Versions: 1 2 3 4 5 6 7 8 9 10 11 12 13 14 15 16 17 18 19 20 21 22 23 24 25 26 27 28 29 30 31 32 33 34 35 36 37 38 39 40 41 42 43 44 45 46 47 48 49 50
000
ASUS43 KJKL 030210
RWRJKL

EAST KENTUCKY HOURLY WEATHER ROUNDUP
NATIONAL WEATHER SERVICE JACKSON KY
900 PM EST MON MAR 02 2015

NOTE: "FAIR" INDICATES FEW OR NO CLOUDS BELOW 12,000 FEET WITH
NO SIGNIFICANT WEATHER AND/OR OBSTRUCTIONS TO VISIBILITY.

* THESE REPORTS ARE NOT UNDER NWS QUALITY CONTROL AND MAY NOT
  REPORT WEATHER SUCH AS PRECIPITATION AND FOG.

KYZ079-080-083-085-087-088-110-112-115-119-120-030300
...EASTERN KENTUCKY...

CITY           SKY/WX    TMP DP  RH WIND       PRES   REMARKS
JACKSON        MOCLDY    34  19  54 VRB7      30.35F WCI  28
LONDON         CLEAR     38  16  40 NE5       30.33S WCI  34
SOMERSET*      CLOUDY    34  23  64 NE7       30.35S WCI  28
MONTICELLO*    MOCLDY    37  27  68 NE7       30.36F WCI  31
MIDDLESBORO*   PTCLDY    33  31  94 CALM      30.33S
HAZARD APT*    CLEAR     36  19  51 CALM      30.35F
BLACK MTN*       N/A     30  27  86 S2          N/A
PIKEVILLE APT* CLEAR     34  19  55 N9        30.35S WCI  26
BIG SANDY*     CLOUDY    34  20  56 NE8       30.38R WCI  27
MOREHEAD APT*  CLEAR     30  18  59 NE6       30.41F WCI  24
$$

KYZ035-036-041-042-044-050-067-078-099-030300
...CENTRAL KENTUCKY...

CITY           SKY/WX    TMP DP  RH WIND       PRES   REMARKS
MT STERLING*   MOCLDY    30  21  69 E8        30.40F WCI  23
FLEMING/MASON* CLEAR     27  16  63 NE8       30.42F WCI  18
DANVILLE*      MOCLDY    30  23  74 E5        30.37F WCI  25
RICHMOND*      MOCLDY    32  19  59 NE5       30.37S WCI  27
LEXINGTON      CLOUDY    30  19  63 NE13      30.37F WCI  20
FRANKFORT      CLOUDY    32  17  54 E8        30.36F WCI  25
$$

KYZ091>093-OHZ055-061-077-WVZ005-015-034-035-042-030300
...SOUTHERN OHIO/WEST VIRGINIA...

CITY           SKY/WX    TMP DP  RH WIND       PRES   REMARKS
COVINGTON      CLOUDY    30  16  56 E9        30.38F WCI  22
COLUMBUS       PTCLDY    22  11  62 CALM      30.43F
DAYTON         MOCLDY    22  13  68 E5        30.40F WCI  16
WILMINGTON     PTCLDY    17  11  77 E5        30.39F WCI  10
HUNTINGTON     PTCLDY    31  17  56 NE3       30.42R
CHARLESTON     PTCLDY    31  17  56 CALM      30.41S
PINEVILLE*     MOCLDY    32  28  86 MISG      30.40S
BECKLEY        PTCLDY    30  14  51 NE3       30.32F
BLUEFIELD      MOCLDY    33  16  49 CALM      30.31S
$$

VAZ002-007-008-TNZ017-027-036-066-071-030300
...SOUTHWEST VIRGINIA/EAST TENNESSEE...

CITY           SKY/WX    TMP DP  RH WIND       PRES   REMARKS
WISE*          PTCLDY    34  21  60 E3        30.31F
JONESVILLE*    PTCLDY    32  28  86 CALM      30.34S
ABINGDON*      CLEAR     35  26  67 E3        30.32S
BRISTOL        PTCLDY    34  29  82 CALM      30.33S
KNOXVILLE      MOCLDY    41  36  82 N7        30.31F
OAK RIDGE      MOCLDY    42  31  64 CALM      30.34S
CROSSVILLE     CLOUDY    41  30  65 CALM      30.29F
NASHVILLE      CLOUDY    46  32  58 E3        30.30F
$$

...KEY TO REMARKS...
VSB - VISIBILITY IN MILES
WCI - WIND CHILL INDEX
HX  - HEAT INDEX

$$


USA.gov is the U.S. government's official web portal to all federal, state and local government web resources and services.